Location: Newark
(7.0858°N, 171.3717°E)
Time: 06:39:23
(UTC+00:00)

Courier 1B - Pass Details

Date: 04 December 2020
Orbit: 962 x 1209 km, 28.3° (Epoch: 19 January)

Event Time Altitude Azimuth Distance (km) Brightness Sun altitude
Rises 13:05:58 0° 315° (NW) 3,772 - -71.8°
Reaches altitude 10° 13:09:08 10° 327° (NNW) 2,860 - -71.4°
Maximum altitude 13:14:50 26° 22° (NNE) 1,999 - -70.6°
Drops below altitude 10° 13:20:48 10° 76° (ENE) 3,014 - -69.7°
Sets 13:24:13 0° 88° (E) 4,014 - -69.1°
